When you browse on this site, cookies collect data to enhance your experience and personalize the content and advertising you see.
Visit our Privacy Policy to learn more. By continuing to use the site, you agree to this use of cookies and data.
  • In Hungary
  • List of Countries
  • For 7 days
  • Water Temperature
  • Weather Map
  • News
  • Weather Widgets
  • user-avatar
    Login

    Hourly Weather Malynivka

    Today, 19 November, Tuesday

    Time Temperature Precipitation Wind Pressure Humidity
    00:00 +8°C° 0 mm 0 mps 747 mmHg 82%
    01:00 +9°C° 0 mm 1 mps 747 mmHg 82%
    02:00 +9°C° 0 mm 1 mps 747 mmHg 82%
    03:00 +9°C° 0 mm 1 mps 747 mmHg 82%
    04:00 +9°C° 0 mm 1 mps 748 mmHg 82%
    05:00 +9°C° 0 mm 1 mps 748 mmHg 81%
    06:00 +9°C° 0 mm 1 mps 748 mmHg 79%
    07:00 +9°C° 0 mm 1 mps 748 mmHg 77%
    08:00 +10°C° 0 mm 1 mps 748 mmHg 75%
    09:00 +12°C° 0 mm 1 mps 748 mmHg 66%
    10:00 +14°C° 0 mm 2 mps 748 mmHg 57%
    11:00 +15°C° 0 mm 2 mps 749 mmHg 48%
    12:00 +16°C° 0 mm 2 mps 748 mmHg 46%
    13:00 +16°C° 0 mm 2 mps 748 mmHg 43%
    14:00 +17°C° 0 mm 2 mps 748 mmHg 41%
    15:00 +15°C° 0 mm 2 mps 748 mmHg 47%
    16:00 +13°C° 0 mm 2 mps 748 mmHg 53%
    17:00 +10°C° 0 mm 2 mps 748 mmHg 59%
    18:00 +9°C° 0 mm 2 mps 748 mmHg 60%
    19:00 +9°C° 0 mm 2 mps 748 mmHg 61%
    20:00 +9°C° 0 mm 2 mps 748 mmHg 63%
    21:00 +10°C° 0 mm 1 mps 748 mmHg 61%
    22:00 +9°C° 0 mm 1 mps 748 mmHg 60%
    23:00 +9°C° 0 mm 1 mps 747 mmHg 59%

    Tomorrow, 20 November, Wednesday

    Time Temperature Precipitation Wind Pressure Humidity
    00:00 +9°C° 0 mm 1 mps 747 mmHg 58%
    01:00 +9°C° 0 mm 1 mps 747 mmHg 58%
    02:00 +9°C° 0 mm 1 mps 747 mmHg 58%
    03:00 +9°C° 0 mm 1 mps 747 mmHg 59%
    04:00 +8°C° 0 mm 1 mps 747 mmHg 60%
    05:00 +8°C° 0 mm 1 mps 747 mmHg 61%
    06:00 +8°C° 0 mm 1 mps 747 mmHg 60%
    07:00 +9°C° 0 mm 1 mps 747 mmHg 58%
    08:00 +9°C° 0 mm 1 mps 747 mmHg 57%
    09:00 +10°C° 0 mm 2 mps 747 mmHg 52%
    10:00 +13°C° 0 mm 2 mps 747 mmHg 48%
    11:00 +14°C° 0 mm 2 mps 747 mmHg 44%
    12:00 +15°C° 0 mm 2 mps 747 mmHg 44%
    13:00 +15°C° 0 mm 2 mps 747 mmHg 45%
    14:00 +14°C° 0 mm 3 mps 747 mmHg 45%
    15:00 +12°C° 0 mm 3 mps 746 mmHg 55%
    16:00 +10°C° 0 mm 3 mps 746 mmHg 64%
    17:00 +8°C° 0 mm 3 mps 746 mmHg 74%
    18:00 +8°C° 0 mm 3 mps 746 mmHg 75%
    19:00 +8°C° 0 mm 3 mps 746 mmHg 77%
    20:00 +7°C° 0 mm 3 mps 746 mmHg 79%
    21:00 +7°C° 0 mm 3 mps 746 mmHg 80%
    22:00 +7°C° 0 mm 3 mps 746 mmHg 81%
    23:00 +7°C° 0 mm 3 mps 746 mmHg 82%

    Day after tomorrow, 21 November, Thursday

    Time Temperature Precipitation Wind Pressure Humidity
    00:00 +7°C° 0 mm 3 mps 746 mmHg 84%
    01:00 +6°C° 0 mm 4 mps 746 mmHg 85%
    02:00 +6°C° 0 mm 4 mps 746 mmHg 87%
    03:00 +5°C° 0 mm 4 mps 746 mmHg 85%
    04:00 +5°C° 0 mm 4 mps 746 mmHg 84%
    05:00 +5°C° 0 mm 4 mps 746 mmHg 83%
    06:00 +5°C° 0 mm 5 mps 746 mmHg 81%
    07:00 +3°C° 0 mm 5 mps 747 mmHg 79%
    08:00 +3°C° 0 mm 6 mps 747 mmHg 78%
    09:00 +4°C° 0 mm 6 mps 747 mmHg 71%
    10:00 +5°C° 0 mm 6 mps 747 mmHg 65%
    11:00 +5°C° 0 mm 6 mps 748 mmHg 58%
    12:00 +5°C° 0 mm 6 mps 748 mmHg 56%
    13:00 +5°C° 0 mm 6 mps 748 mmHg 54%
    14:00 +5°C° 0 mm 7 mps 748 mmHg 52%
    15:00 +4°C° 0 mm 7 mps 747 mmHg 56%
    16:00 +3°C° 0 mm 7 mps 747 mmHg 60%
    17:00 0°C° 0 mm 7 mps 747 mmHg 64%
    18:00 0°C° 0 mm 7 mps 747 mmHg 64%
    19:00 -1°C° 0 mm 7 mps 748 mmHg 64%
    20:00 -2°C° 0 mm 7 mps 748 mmHg 65%
    21:00 -2°C° 0 mm 6 mps 748 mmHg 65%
    22:00 -2°C° 0 mm 6 mps 748 mmHg 66%
    23:00 -3°C° 0 mm 6 mps 748 mmHg 66%

    22 November, Friday

    Time Temperature Precipitation Wind Pressure Humidity
    00:00 -3°C° 0 mm 6 mps 747 mmHg 67%
    01:00 -3°C° 0 mm 6 mps 747 mmHg 68%
    02:00 -3°C° 0 mm 6 mps 747 mmHg 69%
    03:00 -4°C° 0 mm 6 mps 747 mmHg 71%
    04:00 -4°C° 0 mm 5 mps 747 mmHg 73%
    05:00 -4°C° 0 mm 5 mps 747 mmHg 75%
    06:00 -4°C° 0 mm 5 mps 747 mmHg 74%
    07:00 -2°C° 0 mm 5 mps 747 mmHg 74%
    08:00 -2°C° 0 mm 4 mps 747 mmHg 73%
    09:00 0°C° 0 mm 4 mps 747 mmHg 68%
    10:00 +3°C° 0 mm 4 mps 747 mmHg 63%
    11:00 +5°C° 0 mm 4 mps 747 mmHg 57%
    12:00 +6°C° 0 mm 4 mps 746 mmHg 58%
    13:00 +7°C° 0 mm 4 mps 746 mmHg 59%
    14:00 +7°C° 0 mm 4 mps 746 mmHg 60%
    15:00 +6°C° 0 mm 4 mps 746 mmHg 67%
    16:00 +5°C° 0 mm 4 mps 746 mmHg 74%
    17:00 +4°C° 0 mm 4 mps 746 mmHg 80%
    18:00 +4°C° 0 mm 4 mps 746 mmHg 81%
    19:00 +4°C° 0 mm 3 mps 746 mmHg 83%
    20:00 +3°C° 0 mm 3 mps 746 mmHg 84%
    21:00 +3°C° 0 mm 3 mps 746 mmHg 84%
    22:00 +4°C° 0 mm 3 mps 746 mmHg 85%
    23:00 +4°C° 0 mm 3 mps 746 mmHg 86%

    23 November, Saturday

    Time Temperature Precipitation Wind Pressure Humidity
    00:00 +4°C° 0 mm 3 mps 746 mmHg 86%
    01:00 +4°C° 0 mm 3 mps 745 mmHg 86%
    02:00 +4°C° 0 mm 3 mps 745 mmHg 87%
    03:00 +4°C° 0 mm 2 mps 745 mmHg 87%
    04:00 +4°C° 0 mm 2 mps 745 mmHg 86%
    05:00 +4°C° 0 mm 2 mps 746 mmHg 86%
    06:00 +4°C° 0 mm 2 mps 746 mmHg 84%
    07:00 +5°C° 0 mm 2 mps 746 mmHg 82%
    08:00 +4°C° 0 mm 3 mps 746 mmHg 79%
    09:00 +7°C° 0 mm 2 mps 746 mmHg 71%
    10:00 +8°C° 0 mm 2 mps 746 mmHg 64%
    11:00 +10°C° 0 mm 2 mps 746 mmHg 56%
    12:00 +10°C° 0 mm 2 mps 746 mmHg 55%
    13:00 +10°C° 0 mm 3 mps 746 mmHg 53%
    14:00 +10°C° 0 mm 3 mps 745 mmHg 52%
    15:00 +9°C° 0 mm 3 mps 745 mmHg 60%
    16:00 +7°C° 0 mm 3 mps 745 mmHg 67%
    17:00 +6°C° 0 mm 2 mps 745 mmHg 75%
    18:00 +5°C° 0 mm 2 mps 745 mmHg 75%
    19:00 +5°C° 0 mm 2 mps 745 mmHg 75%
    20:00 +5°C° 0 mm 2 mps 745 mmHg 76%
    21:00 +5°C° 0 mm 2 mps 745 mmHg 75%
    22:00 +5°C° 0 mm 2 mps 744 mmHg 75%
    23:00 +6°C° 0 mm 1 mps 744 mmHg 74%

    24 November, Sunday

    Time Temperature Precipitation Wind Pressure Humidity
    00:00 +6°C° 0 mm 1 mps 744 mmHg 74%
    01:00 +6°C° 0 mm 1 mps 744 mmHg 74%
    02:00 +6°C° 0 mm 1 mps 744 mmHg 75%
    03:00 +6°C° 0 mm 1 mps 744 mmHg 75%
    04:00 +5°C° 0 mm 1 mps 744 mmHg 76%
    05:00 +4°C° 0 mm 2 mps 744 mmHg 77%
    06:00 +5°C° 0 mm 2 mps 744 mmHg 74%
    07:00 +6°C° 0 mm 1 mps 744 mmHg 72%
    08:00 +6°C° 0 mm 1 mps 744 mmHg 70%
    09:00 +8°C° 0 mm 1 mps 744 mmHg 63%
    10:00 +10°C° 0 mm 1 mps 744 mmHg 57%
    11:00 +11°C° 0 mm 1 mps 744 mmHg 50%
    12:00 +11°C° 0 mm 1 mps 744 mmHg 50%
    13:00 +10°C° 0 mm 2 mps 744 mmHg 50%
    14:00 +10°C° 0 mm 2 mps 744 mmHg 51%
    15:00 +9°C° 0 mm 2 mps 744 mmHg 55%
    16:00 +8°C° 0 mm 2 mps 744 mmHg 60%
    17:00 +7°C° 0 mm 2 mps 744 mmHg 65%
    18:00 +6°C° 0 mm 2 mps 744 mmHg 66%
    19:00 +6°C° 0 mm 2 mps 744 mmHg 67%
    20:00 +7°C° 0 mm 1 mps 744 mmHg 69%
    21:00 +7°C° 0 mm 1 mps 744 mmHg 68%
    22:00 +7°C° 0 mm 1 mps 744 mmHg 67%
    23:00 +7°C° 0 mm 1 mps 744 mmHg 66%
    Show more